SL-16 DEB, 39895

Orbit data source: Space-Track

SL-16 DEB, 39895 is space debris in LEO originally from a launch on Fri, 26 Mar 1993 UTC launched from the Tyuratam Missile And Space Complex (TTMTR). Debris objects in space refer to the collection of defunct objects orbiting the Earth. Examples of debris include non-operational satellites, rocket bodies, and fragments generated from explosions, collisions, or faulty payload assembly.

Loading next visibility...
Identifier
39895, 1993-016BV
Orbit
LEO
Country
Flag of CISCIS
Related business
Manufacturer
Unknown
Mission
Spacecraft
Bus & Motor
Unknown
Mass
Unknown
Launch date (UTC)
1993-03-26 (33 years ago)
Launch vehicle
Unknown
Launch site
Tyuratam Missile And Space Complex (TTMTR)
Object type
Payload
Rocket body
Debris
Shape & HBR
Unknown shape, 0.1 m
Radar Cross Section
Small (<0.1 m²)

Expand to show TLE details & history
Last TLE update: 3 weeks ago

TLE from 3 weeks ago
0 SL-16 DEB
1 39895U 93016BV  26236.76326070  .00000297  00000-0  23391-3 0  9992
2 39895  70.9892  58.7609 0122135 215.2198 144.0800 13.96296224343492
Epoch: 2026-08-24T18:19Z
TLE epoch observation values (Epoch: 2026-08-24T18:19:05.724Z)
Latitude
-0.00008°
Longitude
170.94673°
Altitude
981.459 km
Speed
7.325 km/s
True Right ascension
03h 55m 02s
True Declination
0° 00' 00"
Sunlit
Object was in daylight at epoch
Visualization orbit readout
Latitude
Unknown
Longitude
Unknown
Altitude
Unknown
Speed
Unknown
Apparent Right ascension
Unknown
Apparent Declination
Unknown
Sunlit
N/A
Visualization observer readout
Local Sidereal Time
09:44:20
Azimuth
Unknown
Elevation
Unknown
Doppler factor
Unknown
Orbital elements
Apogee altitude
993.541 km
Perigee altitude
815.645 km
Semi-major axis
7,282.73 km
Eccentricity
0.01221
Inclination
70.9892°
RAAN
58.7609°
Arg. of periapsis
215.2198°
True anomaly
144.891°
Mean anomaly
144.08°
Eccentric anomaly
144.4865°
Mean motion
3.49222 °/min
Orbital period
103.09 mins
BSTAR
0.00023391
Loading maneuver chart data...
Computing Atmospheric mass density...
Loading historical data...
Loading historical data...
Loading historical data...
Loading historical data...
Loading historical data...
Loading historical data...
Loading historical data...

Documentation

Showing up to 5 results
|